Temp
26 26 25 25 26 26 25 25 25 24 24 24 23 23 23 23 23 22 22 22 22 22 22 22 22 22 22 21 21 21 21 21 21 21 22 22 21 21 21 21 21 20 21 21 21 21 22 23 23 23 24 24 24 24 24 25 25 24 24 25 24 24 24 24 23 24 25 25 26 26 26 25 25 25 24 24 24 23 23 23 23 23 23 23 22
26 26 26 26 26 26 25 25 25 24 24 24 23 23 23 23 23 22 22 22 22 22 22 22 22 22 22 22 21 21 21 21 21 21 21 21 21 21 21 21 21 21 21 21 21 21 22 22 23 23 23 24 24 24 24 24 24 24 24 24 24 24 24 24 23 23 24 24 25 25 25 25 24 24 24 24 24 23 23 23 22 22 22 22 22
27 26 26 26 26 25 25 25 24 24 24 24 24 23 23 23 23 22 22 22 22 21 21 22 22 22 22 22 21 21 21 21 21 21 21 21 21 21 21 21 21 21 21 21 21 21 21 22 22 23 23 23 23 24 24 24 24 24 24 24 24 24 24 24 24 23 23 24 24 25 25 25 24 24 24 24 24 24 23 22 22 22 22 22 22
27 26 26 26 25 25 25 24 24 24 24 24 24 23 23 23 23 22 22 22 21 21 21 21 21 21 21 21 21 21 21 21 21 21 21 20 20 21 21 21 21 21 21 21 21 21 21 21 22 22 23 23 23 23 24 24 24 24 24 24 24 24 24 24 24 24 23 23 24 25 25 25 25 24 24 23 23 23 23 23 22 22 22 22 21
26 26 25 25 25 25 25 24 24 24 24 24 23 23 23 23 22 22 22 21 21 21 21 21 21 21 21 21 21 21 21 21 21 21 20 20 20 20 20 20 20 21 21 21 21 21 21 21 22 22 22 23 23 23 23 23 24 24 24 24 24 24 24 24 24 24 23 23 24 24 24 24 24 23 23 23 22 22 22 22 22 22 21 21 21
26 26 25 25 25 25 25 25 24 24 24 23 23 23 23 22 22 22 22 21 21 21 21 21 21 21 21 21 21 21 21 21 20 20 20 20 20 20 20 20 20 20 20 21 21 21 21 21 21 22 22 22 23 23 23 23 23 23 24 24 24 24 24 24 24 23 23 23 23 23 23 23 23 22 23 23 23 22 21 21 21 21 21 21 21
26 25 25 25 25 25 25 25 25 24 24 23 23 22 22 22 22 22 21 21 21 21 21 21 21 21 21 21 21 21 20 20 20 20 20 20 20 20 20 20 20 20 20 20 21 21 21 21 21 21 22 22 23 23 23 23 23 23 23 24 24 23 23 23 23 23 22 22 23 22 22 22 22 22 22 22 22 22 21 20 20 20 20 21 20
25 25 25 25 25 25 25 25 25 24 23 23 22 22 22 22 21 21 21 21 21 21 21 21 21 21 20 20 20 20 20 20 20 20 20 20 19 20 20 20 20 20 20 20 20 20 20 21 21 21 22 22 22 23 23 23 23 23 23 23 23 23 23 23 23 22 22 22 22 22 22 21 21 21 21 21 21 21 21 21 20 20 20 20 20
25 25 25 25 25 25 25 24 24 24 23 22 22 22 21 21 21 21 20 20 20 20 20 20 20 20 20 20 20 20 19 19 19 19 19 19 19 19 20 20 20 20 20 20 20 20 20 20 21 21 21 22 22 22 23 23 23 23 23 23 23 23 23 23 22 22 21 21 21 21 21 21 20 20 20 20 21 21 21 21 20 20 20 20 19
25 25 25 25 25 24 24 24 23 23 22 22 22 21 21 21 20 20 20 20 20 20 20 20 20 20 20 20 19 19 19 19 19 19 19 19 19 19 20 20 20 20 20 20 20 20 20 20 21 21 21 22 22 22 22 23 23 23 23 23 23 23 22 22 22 22 21 21 21 21 21 21 20 20 20 20 21 21 20 20 20 19 19 19 18
24 24 24 24 24 24 23 23 23 22 22 21 21 21 20 20 20 20 20 20 20 20 20 19 19 19 19 19 19 19 19 19 19 19 19 19 19 19 19 19 20 20 20 20 20 20 20 20 20 21 21 21 21 21 22 22 22 23 23 24 23 23 23 23 22 22 22 22 21 21 21 21 21 21 21 20 20 21 20 20 20 19 19 19 18
24 23 23 23 23 23 22 22 21 21 21 21 20 20 20 20 20 20 20 20 20 19 19 19 19 19 19 19 18 18 18 18 19 19 18 18 18 19 19 19 19 19 20 20 20 20 20 20 20 20 21 21 21 21 22 22 22 22 23 23 23 24 24 23 23 22 22 22 22 21 21 22 21 21 21 21 20 20 20 20 20 19 19 19 18
23 23 23 23 22 22 21 21 21 20 20 20 20 20 20 19 19 19 19 19 19 19 19 19 19 18 18 18 18 18 18 18 18 18 18 18 18 18 18 19 19 19 19 19 20 20 20 20 20 20 21 21 21 21 22 22 22 22 22 22 23 23 24 24 24 24 23 23 22 22 22 22 22 21 22 22 21 20 20 20 20 19 19 19 19
23 22 22 22 21 21 21 20 20 20 20 20 20 19 19 19 19 19 19 19 19 19 19 18 18 18 18 18 18 18 18 18 18 18 18 18 19 18 18 18 18 19 19 19 19 20 20 20 20 20 21 21 21 21 21 22 22 22 22 22 21 22 23 23 23 24 24 24 23 23 23 23 23 23 23 23 22 21 20 20 20 19 19 19 19
22 22 21 21 21 21 20 20 20 20 20 19 19 19 19 19 19 19 19 18 18 18 18 18 18 18 18 18 18 18 18 18 18 18 18 18 18 18 18 18 18 18 19 19 19 19 20 20 20 20 20 21 21 21 21 21 22 22 22 21 20 20 21 22 23 23 23 23 23 23 24 24 24 24 24 23 22 22 21 21 20 20 19 19 19
21 21 21 21 21 20 20 20 19 19 19 19 19 19 19 19 19 19 18 18 18 18 18 18 18 18 18 18 18 18 18 18 18 18 18 18 18 18 18 18 18 18 19 19 19 19 19 20 20 20 20 21 21 21 21 21 21 21 21 21 20 19 20 22 23 23 23 23 23 23 24 24 25 24 24 23 22 21 20 20 19 19 19 19 18
21 21 20 20 20 20 20 19 19 19 19 18 18 18 18 18 18 18 18 18 18 18 18 18 18 18 18 18 18 18 18 18 19 18 18 18 18 18 18 18 18 18 19 19 19 19 19 20 20 20 20 20 21 21 21 21 21 21 21 20 20 19 20 21 22 22 23 23 23 23 23 24 24 23 23 22 21 19 19 18 19 19 19 18 18
20 20 20 20 20 20 19 19 18 18 18 18 18 18 18 18 18 18 18 18 18 18 18 18 18 18 18 18 18 18 18 18 19 18 18 18 18 18 18 18 18 18 19 19 19 19 20 20 20 20 20 20 21 21 21 21 21 20 20 20 20 20 20 21 21 21 22 22 22 22 22 22 23 22 22 21 20 19 19 19 19 19 19 19 18
20 20 20 20 19 19 19 19 18 18 18 18 18 18 18 18 18 18 17 17 17 18 18 18 18 18 18 18 18 18 18 18 18 18 18 18 18 18 18 18 18 19 19 19 19 20 20 20 20 20 20 20 20 20 21 21 20 21 21 20 20 20 20 21 21 21 21 21 21 21 21 21 21 21 21 21 19 19 20 20 20 19 19 19 18
20 20 19 19 19 19 19 19 18 18 18 18 18 18 17 17 17 17 17 17 17 17 17 18 18 18 18 18 18 18 18 18 18 18 18 18 18 18 18 18 18 19 19 19 19 20 20 20 20 20 20 20 20 20 21 21 21 20 20 19 19 20 21 21 21 21 21 21 21 21 20 21 21 20 20 20 19 19 20 20 20 20 20 19 17
19 19 19 19 19 19 19 19 18 18 18 18 17 17 17 17 17 17 17 17 17 17 17 17 18 18 18 18 18 18 18 18 18 18 18 18 18 18 18 18 18 18 18 19 19 20 20 20 20 20 20 20 20 20 20 21 21 20 20 20 20 21 21 21 21 21 20 20 20 20 20 20 20 20 19 19 19 19 19 20 20 20 20 19 18
19 18 18 18 18 18 18 18 18 18 18 17 17 17 17 17 17 17 17 17 17 17 17 18 18 18 18 18 18 18 18 18 18 18 18 18 18 18 18 18 18 18 18 19 19 19 20 20 20 20 20 20 20 20 20 20 20 20 20 21 22 22 21 21 21 20 20 20 19 19 20 20 20 19 19 19 19 19 19 19 20 20 20 20 19
18 18 18 18 18 18 18 18 18 17 17 17 17 17 17 16 16 17 17 17 17 17 17 17 17 17 17 17 18 18 18 18 18 18 18 18 18 18 18 18 18 18 18 18 19 19 20 20 20 20 20 20 20 20 20 20 20 20 20 21 21 21 21 20 20 20 19 19 19 19 19 19 19 19 19 19 19 19 19 19 19 19 19 19 19
17 17 17 17 17 17 17 17 17 17 17 17 16 16 16 16 16 16 17 17 17 17 17 17 17 17 17 17 17 18 18 18 18 18 18 18 19 19 19 19 18 18 18 18 18 19 19 19 20 20 20 20 20 20 20 20 20 20 21 21 21 21 20 19 19 19 19 18 18 18 18 17 17 17 18 18 18 19 18 18 18 18 18 17 17
17 17 17 17 17 17 17 17 16 16 16 16 16 16 16 16 16 16 16 17 17 17 17 17 17 17 17 17 17 17 17 17 17 18 18 18 18 19 19 19 18 18 18 18 19 19 19 19 20 20 20 20 20 20 20 20 21 20 20 20 20 19 19 19 19 18 17 16 16 15 15 14 14 15 15 16 16 17 17 17 16 17 17 17 16
17 17 16 17 16 16 16 16 16 16 16 16 16 16 16 16 16 16 16 17 17 17 17 17 17 17 17 17 17 17 17 16 16 17 18 18 19 19 19 19 19 19 19 19 19 19 19 19 20 20 20 20 20 20 20 20 20 19 19 18 18 18 18 18 17 16 14 14 13 12 12 12 13 13 13 14 14 14 14 14 15 15 15 15 14
16 16 16 16 16 15 15 15 15 15 15 15 15 15 15 15 15 16 16 17 17 17 17 17 17 17 16 16 16 16 15 16 16 17 18 18 19 19 19 19 19 19 19 19 19 19 18 18 19 19 19 19 19 19 19 18 18 17 17 17 17 17 17 16 15 14 13 12 12 11 12 12 12 12 12 12 12 12 12 12 12 12 13 14 13
15 15 15 15 15 15 15 15 15 15 15 15 15 15 15 15 15 16 16 17 17 17 17 17 16 16 15 14 14 14 14 15 15 16 17 18 18 19 19 19 19 20 19 19 19 19 18 18 18 18 18 18 17 17 16 16 16 16 15 15 15 15 15 15 14 13 13 12 12 13 13 13 13 13 13 12 11 12 12 12 12 12 12 13 13
14 14 14 14 14 14 14 14 15 15 15 15 15 15 15 15 15 16 16 17 17 17 16 16 15 14 13 12 12 12 13 14 15 15 16 17 17 18 18 19 19 19 19 19 19 18 17 17 17 16 16 16 15 15 15 14 14 14 14 14 14 14 14 14 13 13 13 13 13 13 13 13 13 14 14 13 12 12 13 13 13 13 13 13 12
14 14 14 14 14 14 14 14 14 15 15 15 15 15 15 16 16 16 17 17 17 16 16 15 13 12 11 12 12 11 11 13 15 15 15 16 17 17 18 18 19 19 19 19 18 17 17 16 16 15 15 15 14 14 14 13 13 13 12 12 12 12 12 12 12 12 12 12 12 11 11 11 11 12 12 12 12 13 13 13 13 13 13 12 12
14 14 14 14 14 14 15 14 15 15 15 15 15 15 15 16 16 16 17 17 17 16 15 14 13 12 11 11 12 12 12 13 14 14 15 16 17 18 18 18 18 19 18 18 17 16 16 16 15 15 15 14 14 14 13 13 13 12 12 12 12 12 11 11 11 11 11 11 11 11 11 11 11 11 11 11 11 12 12 12 12 13 13 12 12
14 14 14 14 14 15 15 15 15 15 15 15 15 15 15 16 16 17 17 17 16 15 14 13 12 12 12 11 12 13 13 13 13 14 15 16 16 17 18 18 18 18 18 17 17 16 16 15 15 15 14 14 14 13 13 13 12 12 11 11 11 11 11 11 11 12 12 11 11 12 12 12 12 11 11 11 11 11 11 11 11 12 12 12 12
14 14 14 14 14 14 15 15 15 15 15 15 15 15 16 16 16 17 16 16 14 13 12 12 11 12 12 12 12 12 13 13 13 14 14 15 15 16 17 17 17 16 17 16 16 15 15 15 14 14 14 14 13 13 13 12 12 12 11 11 11 11 11 11 11 12 12 12 12 12 12 12 12 12 12 12 11 11 11 11 11 11 12 12 12
14 14 14 15 15 15 15 15 15 15 15 15 15 15 16 16 16 16 15 14 14 13 12 12 12 12 12 12 12 12 13 13 13 13 14 14 14 15 15 15 15 15 16 16 15 15 15 14 14 14 13 13 13 13 12 12 12 12 12 11 11 11 11 11 12 12 12 12 12 12 12 12 12 12 12 12 12 12 12 12 12 12 12 12 12
14 14 15 15 15 15 15 15 15 15 15 15 15 15 16 16 16 15 14 13 13 12 12 12 12 12 12 12 12 13 13 13 13 13 14 14 14 15 15 15 14 14 15 14 14 14 14 14 13 13 13 12 12 12 12 12 12 12 12 12 12 12 12 12 12 12 12 12 12 12 12 12 12 12 12 12 12 12 12 12 13 13 14 14 13
14 14 14 15 15 15 15 15 15 15 15 15 16 16 16 15 14 13 13 12 12 12 12 12 13 13 13 13 13 13 13 13 13 14 14 14 14 15 14 14 14 14 13 13 13 13 13 13 13 12 12 12 12 12 12 12 12 12 12 12 12 12 12 12 12 12 12 12 12 12 12 12 12 12 12 12 13 13 13 14 14 15 15 15 14
14 14 14 15 15 15 15 15 15 15 16 16 16 16 15 14 13 13 12 12 12 12 12 12 13 13 13 13 13 13 13 13 13 13 13 14 14 14 13 13 13 13 13 13 13 13 13 12 12 12 12 12 12 12 12 12 12 12 12 12 12 12 12 12 12 12 12 12 12 12 12 13 13 13 13 13 13 14 14 14 15 15 15 15 15
14 14 15 15 15 15 15 15 16 16 16 16 16 15 13 13 12 12 12 12 12 12 12 12 12 13 13 13 13 13 13 13 13 13 13 13 13 13 13 13 13 12 12 12 12 12 12 12 12 12 12 12 12 12 12 12 12 12 12 12 12 12 12 13 13 12 12 13 13 13 13 13 13 14 14 14 14 14 15 15 15 14 14 15 15
14 14 15 15 15 15 15 15 15 15 15 15 14 14 13 13 12 12 12 12 12 12 12 12 12 12 13 13 13 13 13 13 12 12 12 12 12 12 12 12 12 12 12 12 12 12 12 12 12 12 12 12 12 12 12 12 12 12 12 12 12 12 13 13 13 13 13 13 13 13 14 14 14 15 15 15 15 15 15 15 15 15 14 14 15
13 14 14 14 14 15 15 15 15 15 15 14 14 13 13 13 13 12 12 12 12 12 11 11 11 12 12 12 12 13 12 12 12 12 12 12 12 12 11 11 11 11 11 11 11 11 11 12 12 12 12 12 12 12 12 12 12 12 13 13 13 13 13 13 13 13 14 14 14 14 14 15 15 15 15 16 16 15 15 15 15 15 15 14 14
13 13 14 14 14 14 14 14 14 14 14 14 13 13 13 13 13 13 12 12 12 12 11 11 11 11 12 12 12 12 12 12 12 11 11 11 11 11 11 11 11 11 11 11 11 11 11 11 12 12 12 12 12 12 12 12 12 13 13 13 13 13 13 13 13 14 14 14 14 15 15 15 15 15 15 15 15 15 15 15 14 14 14 14 13
13 13 13 13 13 13 13 13 13 13 13 13 13 13 13 13 13 12 12 12 12 11 11 11 11 11 11 11 12 11 11 11 11 11 11 11 11 11 11 11 11 11 11 11 11 11 11 11 12 12 12 12 12 12 13 13 13 13 13 13 13 13 13 13 14 14 15 15 15 15 15 15 15 15 15 15 15 15 14 14 14 14 14 13 13
12 13 13 12 13 13 13 13 13 13 13 13 13 13 13 12 12 12 12 12 12 12 11 11 11 11 11 11 11 11 11 11 11 11 10 10 10 10 10 10 11 11 11 11 11 11 12 12 12 12 12 13 13 13 13 13 13 13 13 13 13 13 13 14 14 15 15 15 15 15 15 15 15 14 14 14 14 14 14 14 13 13 13 13 12
12 12 12 12 12 12 12 12 12 12 13 13 13 12 12 12 12 12 12 12 12 11 11 11 11 11 11 11 11 11 10 10 10 10 10 10 10 10 10 10 11 11 12 12 12 12 12 12 12 12 12 13 13 13 13 13 14 14 14 14 14 14 14 14 15 15 15 15 14 14 14 14 14 14 14 14 14 13 13 13 13 13 12 12 12
11 11 12 12 12 12 12 12 12 12 12 12 12 12 12 12 12 11 11 11 11 11 11 11 11 10 10 10 10 10 10 10 10 10 10 10 10 10 10 10 11 11 11 12 12 12 13 13 12 12 12 12 13 13 13 13 14 14 14 14 14 14 14 14 14 14 15 15 14 14 14 14 13 13 13 13 13 13 13 13 12 12 12 12 12
11 11 11 11 11 11 11 11 11 11 11 11 11 11 11 11 11 11 11 11 11 10 10 10 10 10 10 10 10 10 10 10 9 9 9 9 9 10 10 11 11 11 11 11 12 12 12 13 13 13 12 13 13 13 13 14 14 14 14 14 14 14 14 14 14 14 14 14 14 14 14 13 13 13 13 13 13 13 12 12 12 12 12 11 11
11 11 11 11 11 11 11 11 11 11 11 11 11 11 11 11 10 10 10 10 10 10 10 10 10 10 9 9 9 9 9 9 9 9 9 9 9 10 10 11 11 11 11 12 12 12 12 13 13 13 13 13 13 13 13 14 14 14 14 14 14 14 14 14 14 13 13 13 13 13 13 13 12 12 12 12 12 12 12 11 11 11 11 11 11
10 10 10 10 10 10 10 10 11 10 10 10 10 10 10 10 10 10 10 10 10 10 9 9 9 9 9 9 9 9 9 9 9 9 9 9 10 10 11 11 12 12 12 12 12 13 13 13 13 13 13 13 13 13 13 13 13 13 13 13 13 13 13 13 13 12 12 12 12 12 12 12 11 11 11 11 11 11 11 11 11 11 10 10 10
10 10 10 10 10 10 10 10 10 10 10 10 10 10 10 10 10 10 10 10 9 9 9 9 9 9 9 9 9 9 10 10 10 10 10 10 11 11 12 12 12 12 12 12 12 12 12 12 13 12 12 12 12 12 12 12 12 12 12 12 12 11 11 11 11 11 11 11 11 11 11 11 11 10 10 10 10 10 10 10 10 10 10 10 10
10 10 10 10 10 10 10 10 10 10 10 10 10 10 10 10 10 10 10 10 10 10 10 10 10 10 10 10 10 10 10 10 10 11 11 12 12 12 12 12 12 12 12 12 12 12 12 12 12 12 11 11 11 11 11 11 11 11 11 11 10 10 10 10 10 10 10 10 10 10 10 10 10 10 10 10 10 10 10 10 10 10 10 10 9
11 11 11 10 10 10 10 10 10 10 10 10 10 10 10 10 10 10 10 10 10 10 10 10 10 10 10 11 11 11 11 11 11 12 12 12 12 12 12 12 12 12 12 12 12 11 11 11 11 11 11 11 11 11 11 10 10 10 10 10 10 10 10 10 10 10 10 10 10 10 10 10 9 9 9 9 9 9 9 9 9 9 9 9 9
Height
759 760 760 760 760 760 760 760 760 759 759 758 757 756 755 754 753 752 751 750 750 749 749 748 747 747 746 745 745 744 744 743 743 742 742 741 741 741 740 740 739 738 738 738 739 739 740 740 740 740 742 743 744 745 746 747 749 750 751 751 752 753 755 756 756 755 755 756 757 758 758 759 760 761 763 765 766 767 768 770 771 772 773 775 776
758 758 758 758 758 758 758 758 758 757 756 756 755 754 753 752 750 749 748 747 747 746 746 745 744 744 743 742 742 741 740 739 739 739 738 738 737 737 737 737 736 735 734 735 735 736 737 737 737 738 739 739 740 741 742 743 745 746 747 748 748 749 750 752 753 753 753 753 754 755 755 756 757 758 760 761 762 764 766 767 769 771 772 773 775
756 756 756 756 756 756 756 756 755 755 754 753 752 751 750 749 748 747 745 744 744 743 742 742 741 741 740 739 738 737 737 736 736 735 735 734 734 734 734 733 732 732 731 731 732 733 734 734 733 735 736 736 736 737 738 740 741 742 743 745 745 745 746 748 749 750 750 750 751 752 752 753 754 755 757 758 760 761 763 765 767 769 771 772 773
754 754 754 754 754 754 754 753 753 752 751 750 749 748 747 746 745 744 743 741 740 740 739 738 738 737 736 735 735 734 733 732 732 731 731 731 730 730 730 729 728 728 728 728 728 729 729 729 729 730 732 733 732 733 734 735 737 738 739 741 741 742 743 744 745 745 746 747 747 748 749 750 750 752 754 756 758 759 760 762 764 767 768 769 771
751 751 751 751 751 751 751 751 750 749 748 747 746 745 744 743 742 740 739 738 737 736 736 735 734 733 733 732 731 730 730 729 728 728 727 727 726 726 725 725 724 724 724 724 724 725 725 725 725 727 728 728 728 729 729 730 731 733 734 736 737 738 739 740 740 741 742 743 743 744 745 746 748 749 751 753 755 757 759 760 762 765 766 767 769
748 748 749 749 748 748 748 747 747 745 745 744 742 742 740 739 738 737 736 735 734 733 732 731 730 729 729 728 727 726 726 725 725 724 724 723 722 722 721 720 720 720 720 720 720 721 721 721 722 723 724 724 724 725 726 726 727 728 729 730 732 734 735 736 736 737 738 738 739 740 741 742 744 746 747 749 751 753 756 758 760 762 764 765 767
746 746 746 746 745 745 745 744 743 742 741 740 739 738 737 736 735 734 733 732 730 729 728 727 726 725 725 724 723 722 721 721 720 720 720 719 718 718 717 716 716 715 715 715 715 716 716 717 717 718 718 719 719 720 722 723 724 724 724 725 727 729 730 731 732 733 734 734 735 737 738 739 741 742 744 746 748 750 752 754 757 759 761 762 764
743 743 743 743 742 742 741 741 740 739 738 737 736 735 734 733 732 731 730 728 727 726 724 723 722 722 721 720 719 718 717 717 716 716 716 715 714 713 713 712 712 711 711 711 711 711 711 712 712 713 713 714 714 715 717 718 720 720 721 722 723 724 725 726 727 728 729 730 732 734 735 737 739 740 742 744 746 747 748 750 753 755 757 759 761
740 741 740 740 740 739 739 738 737 737 736 734 733 732 731 730 729 727 726 724 723 722 721 720 719 718 717 716 715 714 713 712 712 712 711 711 710 709 709 708 708 707 707 707 707 706 706 707 707 708 708 709 710 710 711 713 714 715 716 717 719 719 720 721 722 723 725 727 729 732 734 735 736 738 739 740 740 741 744 747 749 751 754 756 758
738 738 738 737 737 737 736 735 735 734 733 732 730 729 728 727 725 724 722 721 719 718 717 716 715 714 712 711 711 710 709 707 707 707 707 707 706 705 704 704 704 703 703 702 702 702 701 702 702 702 703 703 705 705 706 708 709 710 711 712 714 715 716 717 718 720 722 724 726 728 730 731 732 733 734 734 735 738 740 743 746 748 751 754 756
735 736 735 735 735 734 733 733 732 731 730 728 727 726 725 723 721 720 718 717 716 714 714 712 711 710 709 707 706 705 704 703 702 702 703 703 702 701 700 699 699 699 698 698 697 697 697 697 697 697 698 698 700 701 702 703 704 705 706 707 709 710 712 714 715 717 719 720 722 724 725 726 727 728 730 731 733 735 736 738 741 744 747 749 752
734 734 733 733 732 732 731 730 729 728 726 725 724 722 721 720 718 717 715 713 712 711 710 708 707 706 705 703 702 700 699 698 697 697 697 697 698 697 696 695 694 694 693 693 693 692 692 692 692 692 692 693 695 696 697 698 698 700 700 702 704 705 707 709 711 713 714 715 716 718 719 720 722 724 725 727 729 731 733 734 736 737 740 743 745
732 731 731 731 730 729 728 727 726 725 723 722 721 719 718 716 714 713 711 710 709 707 706 704 703 702 701 699 697 696 695 694 693 693 692 692 693 692 691 690 689 689 688 688 688 688 688 688 687 687 687 688 690 691 692 692 693 695 697 699 701 702 703 703 704 706 707 707 708 709 710 713 715 716 718 720 723 726 728 730 731 732 734 736 737
730 729 729 728 727 726 725 724 723 722 720 719 718 716 714 712 711 709 708 706 705 703 702 700 699 698 697 695 693 691 690 689 688 688 688 687 688 687 686 685 684 684 683 683 683 683 683 683 683 682 683 684 685 686 687 688 689 691 694 696 698 698 698 699 700 701 701 702 703 703 704 706 707 707 710 713 716 718 721 724 726 727 728 730 732
728 727 726 726 725 724 723 721 720 719 718 716 715 713 711 709 707 706 704 702 701 699 698 696 695 694 692 691 689 686 685 684 684 683 683 683 683 683 681 680 679 678 677 677 678 677 678 678 678 678 678 679 679 681 682 684 687 689 690 691 692 693 694 695 695 696 697 697 698 699 700 701 702 703 705 707 708 710 714 719 724 725 726 728 732
726 725 724 723 723 722 720 719 718 716 715 713 711 709 707 705 703 702 700 699 697 695 694 692 691 689 688 686 684 681 679 679 678 678 677 678 678 677 675 674 673 673 672 672 672 672 673 673 673 673 674 674 674 675 678 681 684 686 686 686 687 687 688 688 689 690 690 691 693 694 696 697 699 701 702 702 704 706 710 718 724 725 725 727 730
724 723 722 721 720 719 718 716 715 713 712 710 708 706 703 701 700 698 697 695 693 692 690 688 687 685 683 682 680 677 674 673 673 672 672 672 672 671 670 668 667 667 666 666 666 667 667 668 668 669 669 669 669 671 675 678 680 680 681 681 682 682 682 683 684 685 685 687 688 690 692 693 696 698 700 701 704 708 711 714 718 720 722 724 727
722 721 720 719 718 717 715 714 712 710 708 706 704 702 700 698 696 695 694 692 690 688 686 684 682 681 679 677 675 673 670 668 668 667 666 666 667 666 664 663 662 661 661 661 661 661 662 662 663 664 664 663 664 667 671 674 675 675 675 675 677 677 677 678 680 681 682 684 686 688 689 691 693 694 696 698 702 707 708 707 709 713 716 718 721
720 719 718 717 715 714 712 711 709 707 705 703 701 699 697 695 693 692 691 689 687 685 683 680 678 676 674 672 670 668 665 663 662 661 660 660 660 660 659 657 656 656 656 656 657 656 657 657 658 659 659 659 660 663 666 668 670 670 670 671 672 672 671 673 676 677 678 680 682 685 686 688 689 690 691 693 697 702 703 701 702 705 708 711 715
718 717 716 714 713 711 709 708 706 704 702 700 697 696 694 692 691 689 687 686 683 681 679 676 673 671 669 667 665 664 661 658 657 656 654 654 654 654 653 652 651 651 652 652 652 652 652 653 653 653 654 655 657 660 661 663 665 665 666 667 667 665 667 670 673 673 674 676 678 680 682 683 684 685 688 691 694 697 699 698 697 699 702 707 711
716 714 713 711 710 708 706 705 702 700 699 697 695 693 691 690 688 686 684 682 680 677 674 672 668 665 663 661 660 658 656 654 652 651 649 649 648 648 647 646 646 647 647 647 647 647 647 647 647 648 649 651 654 655 656 658 660 661 661 661 660 661 665 667 668 669 671 673 676 677 678 679 680 681 683 686 688 691 693 693 693 694 696 700 705
713 712 710 708 706 705 703 701 699 697 696 694 692 690 688 687 685 683 681 679 676 673 670 666 663 660 657 656 654 652 651 649 647 646 644 643 643 643 642 641 642 643 643 643 642 642 642 642 643 644 646 647 649 651 651 653 655 656 656 656 657 660 662 663 663 665 667 669 672 674 674 675 675 676 678 680 682 685 687 688 689 690 692 694 699
711 709 707 705 703 702 700 698 696 694 693 691 690 687 685 684 682 680 678 675 672 669 665 662 659 656 653 651 649 647 646 644 643 641 639 638 638 637 637 637 637 639 639 638 637 637 638 638 639 640 642 643 645 646 647 648 649 651 652 652 654 657 658 658 660 661 662 664 667 668 669 670 670 671 672 674 676 678 680 682 684 687 691 694 697
708 706 704 702 700 698 697 695 693 691 690 688 687 684 682 680 678 676 674 671 668 665 661 659 656 653 650 648 645 643 642 640 638 636 634 633 632 632 632 632 632 634 634 633 633 633 634 635 636 637 638 639 640 641 642 643 644 646 647 649 650 652 653 654 655 657 658 660 662 664 666 668 668 668 669 669 671 673 675 678 681 684 688 693 697
705 703 701 699 697 695 693 691 690 688 687 686 684 681 679 677 674 672 670 668 665 662 658 655 653 650 648 645 642 640 638 636 634 631 629 628 627 627 627 627 627 629 629 629 630 630 631 631 632 633 634 635 636 637 638 639 640 642 643 645 647 648 650 652 653 655 657 659 661 664 667 668 669 669 669 669 670 671 672 675 679 683 687 691 696
703 701 699 696 694 693 691 688 686 685 683 682 681 679 676 674 671 669 666 664 661 658 655 652 649 647 644 642 640 637 634 632 630 627 625 624 623 622 622 622 623 624 624 625 626 627 627 628 628 629 631 632 632 633 634 635 637 639 640 642 644 647 649 651 652 654 657 659 662 665 668 670 671 671 672 672 673 673 674 674 676 681 686 690 694
701 698 696 693 692 690 688 686 684 682 680 679 677 675 673 672 669 666 663 661 658 655 651 648 646 643 641 639 637 634 631 629 626 623 621 620 619 618 618 618 619 620 620 621 622 623 623 624 625 626 628 629 629 630 631 633 635 637 639 641 643 644 646 649 651 654 656 659 662 666 669 671 672 674 676 678 678 678 679 680 680 682 684 688 694
698 696 693 691 689 688 686 684 681 679 677 675 674 672 670 668 666 663 660 658 655 651 647 645 642 641 639 636 634 632 629 625 623 621 619 617 616 616 615 615 616 616 617 618 619 620 621 622 623 624 625 626 628 629 630 632 634 636 638 640 642 644 646 648 651 655 658 661 663 666 669 671 674 676 679 683 686 686 685 686 688 689 688 689 696
696 693 691 689 687 685 683 681 679 677 674 671 670 668 666 664 662 659 656 654 651 647 644 642 640 638 636 634 632 631 627 621 618 617 616 614 614 613 613 612 613 613 614 615 616 618 619 620 622 623 624 626 628 629 630 633 636 638 640 641 643 645 647 649 653 657 660 662 664 667 669 671 674 676 678 681 687 691 691 692 694 697 698 699 704
693 691 688 686 684 682 680 677 675 673 671 668 665 663 661 660 659 655 652 649 647 644 642 640 638 636 633 630 628 627 623 617 614 613 612 611 610 610 610 610 610 611 612 613 614 615 617 619 621 622 624 626 629 630 631 633 637 641 643 645 646 647 649 651 655 659 662 664 666 669 672 674 676 679 680 683 685 688 691 694 697 702 705 707 710
691 688 685 683 681 679 676 674 671 670 668 665 663 660 656 654 653 652 649 646 644 642 640 638 637 635 632 627 623 621 618 615 612 611 609 607 606 606 606 607 608 609 610 611 612 614 615 618 621 624 626 628 631 633 633 635 639 643 645 648 650 651 653 656 659 661 664 667 670 674 676 679 682 684 686 690 691 690 691 695 698 702 707 709 712
688 684 682 680 678 675 673 670 668 667 665 663 661 658 654 651 648 647 646 644 642 640 639 637 635 632 630 626 622 618 616 614 611 609 606 604 603 602 602 604 605 607 609 610 611 613 614 616 620 624 627 630 634 636 636 637 640 644 646 650 654 656 658 661 663 665 667 670 674 677 680 683 686 688 690 693 696 697 697 698 700 703 706 709 712
685 682 679 677 674 672 670 668 666 664 662 660 658 656 653 650 647 644 643 642 641 640 638 636 634 630 628 625 622 619 616 614 611 608 605 603 601 600 600 602 603 606 608 610 613 616 617 619 621 625 628 631 635 637 638 640 643 646 649 652 656 660 663 665 667 670 672 675 677 680 684 686 689 692 694 697 699 701 702 703 704 706 708 711 713
683 680 677 674 671 669 667 665 663 662 660 658 655 653 650 648 646 644 643 641 640 639 638 636 633 631 628 626 623 620 617 614 612 609 606 604 603 601 601 602 604 606 608 610 613 618 621 623 625 628 631 634 638 640 642 645 648 650 653 656 660 664 667 669 671 674 677 680 682 684 687 689 691 694 697 700 702 703 705 706 708 709 711 713 716
680 677 674 671 669 667 665 663 661 659 657 655 652 649 648 646 646 645 644 643 641 640 638 636 634 632 630 628 625 622 619 616 614 612 610 608 607 605 604 605 607 609 611 612 615 619 624 627 630 633 635 638 641 644 646 650 652 654 657 661 664 668 671 674 676 679 681 683 686 688 690 692 694 696 699 701 703 705 707 710 711 712 713 715 718
677 674 671 669 666 664 663 661 659 657 655 652 649 647 646 646 646 646 645 644 643 641 639 638 636 634 632 630 628 625 622 620 618 616 614 612 610 608 608 610 612 614 616 618 620 624 628 633 636 639 641 643 646 649 652 655 658 660 663 665 668 671 675 678 681 683 685 687 690 693 693 694 696 699 701 703 705 707 709 711 713 714 715 717 719
675 672 668 666 664 662 661 659 657 655 653 650 648 647 647 647 647 647 646 645 643 642 641 640 637 635 634 632 630 628 625 623 621 620 618 616 614 614 615 617 618 620 622 625 626 629 633 639 642 645 647 648 650 653 657 660 662 665 667 669 671 674 677 680 683 686 688 690 694 696 697 698 699 701 702 704 706 708 710 712 714 715 717 719 720
674 670 667 665 663 661 659 658 655 653 651 649 649 649 650 650 649 648 647 646 645 644 643 641 639 638 636 635 633 631 628 627 626 624 624 623 621 621 623 624 625 627 629 632 634 636 640 645 648 650 652 653 655 658 661 664 667 670 672 673 675 677 680 684 687 689 691 694 696 698 699 700 701 703 704 705 707 709 711 713 714 716 718 720 721
673 670 667 665 663 661 659 657 655 653 651 650 650 651 652 652 651 650 649 648 647 647 646 644 642 641 639 638 637 634 632 632 632 631 631 630 630 630 630 631 633 634 637 639 642 644 648 652 655 656 658 660 662 664 666 668 671 674 676 677 679 682 685 688 691 693 695 697 698 700 701 702 703 705 706 707 709 710 712 714 715 717 719 720 722
672 670 668 665 663 661 659 658 657 655 653 652 652 653 653 653 652 651 651 651 650 650 649 647 646 645 643 642 640 638 637 638 638 638 638 638 638 637 638 639 641 642 644 647 650 652 655 657 660 662 664 667 669 670 672 673 675 678 680 682 684 686 689 692 694 695 697 699 700 701 702 703 705 706 708 709 711 712 713 715 717 718 720 721 723
673 670 668 666 665 663 661 659 658 657 656 656 655 655 655 655 654 654 654 654 654 654 653 652 651 650 648 647 645 643 642 643 644 644 644 644 645 645 646 647 649 650 652 654 657 659 660 663 665 667 669 672 674 676 677 679 680 682 685 686 688 690 692 694 696 698 699 700 701 703 704 705 707 708 709 711 712 714 715 717 718 719 721 722 723
673 671 669 668 666 664 662 661 660 659 659 658 658 658 657 657 657 658 658 658 658 658 657 657 656 655 654 652 650 649 648 649 650 650 650 651 651 652 653 655 656 658 660 661 663 664 666 668 670 672 674 677 679 680 682 683 685 686 688 690 692 694 696 697 699 700 701 703 704 705 706 708 709 710 711 713 714 715 717 718 719 721 722 723 725
674 672 671 669 668 666 665 663 662 662 661 661 661 661 661 661 661 662 662 662 663 663 662 661 661 660 659 658 656 655 655 656 656 656 657 657 658 659 661 662 663 664 665 667 669 670 670 672 674 677 679 681 683 684 685 687 688 690 692 694 695 697 699 700 702 703 704 705 706 707 709 710 711 712 713 714 715 716 718 719 720 721 723 724 725
676 674 673 671 670 669 668 666 666 665 664 664 665 665 665 665 666 666 666 667 668 667 667 667 666 665 665 664 663 662 662 663 664 664 664 665 665 666 668 669 670 670 671 673 675 676 676 677 679 681 683 685 687 688 689 691 692 694 695 697 699 700 702 703 704 705 706 707 708 709 710 711 712 713 714 715 716 717 718 719 721 722 724 725 726
678 677 676 674 673 672 671 670 670 669 668 668 669 669 669 670 671 671 672 672 672 672 672 672 671 671 670 671 670 670 669 670 671 671 671 672 672 673 674 675 676 676 677 679 681 681 682 683 684 686 687 689 691 692 694 695 697 698 699 700 702 703 705 706 707 708 708 709 710 710 712 713 714 714 715 716 717 718 719 721 722 723 725 726 727
682 680 679 678 676 675 674 674 674 673 673 673 673 674 675 675 675 676 677 677 677 677 677 677 677 677 676 677 677 676 676 677 677 678 678 678 679 679 680 681 682 683 684 685 686 687 687 688 689 691 692 694 696 697 699 700 701 702 703 704 705 706 707 708 709 710 710 711 711 712 713 714 715 716 717 717 718 719 720 722 723 724 725 726 727
685 684 683 682 680 679 679 678 678 677 677 678 679 679 680 680 680 681 682 682 682 682 682 682 683 683 683 683 683 683 683 683 684 684 685 685 685 686 687 687 688 689 690 691 692 693 693 695 696 696 698 699 701 702 703 704 705 706 706 707 708 709 709 710 711 711 712 713 713 714 714 715 716 717 718 718 719 720 721 723 724 725 726 727 728
688 687 687 685 684 684 683 683 683 683 683 684 684 685 685 685 685 686 687 687 688 688 688 688 689 689 689 690 690 690 690 690 690 691 691 691 692 692 693 693 694 695 696 697 698 699 699 700 701 702 703 704 704 705 706 707 707 708 709 709 710 711 711 712 713 713 713 714 715 715 716 716 717 718 719 720 721 722 723 724 725 726 727 729 730
693 692 691 690 689 689 688 688 688 689 689 689 690 690 690 690 691 691 692 692 693 693 694 694 694 695 695 695 696 696 696 696 696 697 697 697 698 698 699 699 700 701 701 702 703 704 704 705 705 706 707 707 708 708 709 709 710 710 711 712 712 713 713 714 714 714 715 716 716 717 718 718 719 720 721 722 723 724 724 725 726 727 729 730 730
697 696 695 694 694 694 694 693 693 693 694 694 695 695 695 696 696 697 697 697 698 698 699 699 700 700 700 700 701 701 701 702 702 702 703 703 704 704 704 704 705 705 706 707 707 708 709 709 710 710 710 711 711 712 712 712 712 713 713 713 714 714 715 715 716 716 717 718 718 719 719 720 721 721 722 723 724 725 725 726 727 728 729 730 730
701 700 700 699 699 699 699 698 698 698 699 699 699 700 700 701 701 702 702 702 703 704 704 704 705 705 705 706 706 706 706 707 707 707 708 708 708 708 709 709 709 710 711 711 712 713 713 713 714 714 714 714 714 714 714 715 715 715 715 716 716 716 717 717 718 718 719 719 720 720 721 721 722 723 723 724 725 726 727 727 728 729 730 730 731
Wind_Speed
6 6 6 5 6 7 9 11 13 15 17 17 18 19 20 20 20 20 19 19 19 19 19 18 18 18 19 19 19 20 21 21 21 22 24 24 24 25 27 28 28 30 32 33 31 28 28 30 31 32 31 30 30 31 31 31 30 28 28 28 27 27 24 19 11 9 14 19 18 15 16 17 17 19 20 20 20 19 17 17 17 17 17 16 16
7 7 7 8 9 11 12 14 15 17 18 19 20 21 21 21 21 21 21 20 20 19 19 18 17 18 19 19 20 20 21 21 22 23 24 24 24 23 25 27 28 30 31 31 31 28 27 29 30 31 30 29 30 31 31 31 30 29 29 29 28 27 26 23 17 10 11 16 19 17 17 18 19 20 21 22 23 21 20 19 18 17 17 17 17
10 10 11 12 13 13 14 16 18 19 20 21 22 22 22 22 21 22 22 22 21 20 19 19 18 18 19 20 21 20 21 21 22 23 24 24 24 24 25 27 28 29 30 31 31 30 28 29 30 30 29 28 30 31 31 31 31 30 31 31 29 28 27 26 22 16 12 15 18 19 18 19 20 22 22 23 23 22 22 21 19 18 18 18 18
13 13 14 15 15 15 17 18 20 21 22 23 24 24 24 23 22 23 23 23 22 20 20 19 19 20 21 22 22 22 22 22 23 23 24 24 25 25 26 27 29 29 30 31 31 31 29 29 31 31 29 28 30 31 31 31 32 32 32 31 30 29 28 28 27 24 18 15 18 20 20 20 22 22 22 22 23 23 22 21 20 20 20 19 19
15 16 16 17 17 17 18 19 21 23 24 25 25 25 24 24 23 24 24 24 23 21 21 20 21 22 22 23 24 24 24 24 24 25 25 25 25 26 27 28 28 29 30 30 30 30 30 30 31 30 29 28 29 30 31 32 33 33 32 31 31 30 29 29 29 28 24 19 18 20 20 20 21 21 23 23 22 21 20 21 22 21 20 21 20
18 18 18 18 18 18 19 20 22 24 25 25 26 25 24 24 24 24 24 24 23 23 22 22 22 23 23 24 24 25 26 26 26 26 26 26 26 27 28 29 29 29 29 30 30 30 31 31 31 30 29 29 30 30 30 32 33 33 33 33 32 31 29 29 29 29 27 24 22 20 20 21 21 20 23 26 25 23 21 20 20 20 22 22 21
20 20 20 19 19 19 20 21 23 25 26 26 25 24 24 24 25 25 24 24 24 24 24 24 24 24 24 25 25 26 27 27 27 27 27 27 27 27 28 29 30 29 29 30 30 30 31 31 31 31 30 30 31 31 30 31 32 33 34 34 32 31 30 29 29 28 27 25 23 21 21 22 21 20 22 25 25 25 24 19 16 18 23 23 22
21 21 21 20 20 21 21 22 24 26 27 26 25 24 24 25 25 25 25 25 25 25 25 26 25 25 26 26 27 27 27 28 28 27 27 28 28 28 29 30 30 29 29 30 30 30 30 31 31 32 32 32 33 34 33 32 31 32 34 34 32 31 31 30 29 28 27 24 21 21 20 19 17 18 19 20 19 21 25 24 20 21 24 23 23
22 22 21 21 22 22 22 23 24 26 27 27 26 25 25 25 25 25 25 25 26 26 26 26 26 27 27 27 28 27 28 30 29 28 27 27 27 27 28 29 29 29 30 30 30 30 30 30 31 32 33 34 36 37 37 36 34 33 34 34 33 32 31 30 28 27 24 20 18 17 16 15 15 16 18 21 24 24 26 25 22 23 25 23 21
21 21 21 22 23 22 22 23 25 26 27 27 27 26 25 25 25 25 25 25 26 26 26 27 27 28 28 28 28 28 29 30 30 29 27 26 27 27 28 29 29 29 30 30 30 30 30 30 30 32 34 35 37 39 39 38 38 38 37 36 35 33 31 28 26 25 22 17 16 17 14 12 17 21 21 26 30 28 25 23 20 22 23 19 16
19 19 20 21 21 20 21 23 25 27 27 26 26 25 25 25 25 25 25 25 26 26 26 27 28 28 28 28 28 29 30 32 31 29 28 27 28 29 29 30 29 29 30 30 30 30 29 29 30 31 33 34 35 37 38 37 37 39 41 41 40 38 34 29 25 25 23 19 20 21 16 14 21 28 27 25 27 27 26 26 24 23 22 17 12
17 18 18 18 18 20 22 24 25 26 25 25 25 25 25 25 26 26 26 26 26 26 26 27 28 28 28 29 29 30 31 32 32 31 30 29 29 29 31 31 30 30 30 30 30 30 29 29 29 30 31 33 34 35 36 37 37 38 40 42 42 42 39 35 30 28 27 24 22 23 23 21 24 31 32 28 27 29 28 28 28 28 26 20 15
16 16 17 17 20 22 23 24 24 24 24 24 25 25 25 26 26 26 27 26 26 26 27 27 27 28 28 29 30 31 32 33 32 32 32 30 30 30 31 32 31 30 31 30 30 30 30 30 29 29 30 32 33 33 34 36 37 38 40 40 39 40 41 41 38 36 35 33 28 28 31 30 28 32 37 35 32 31 28 27 30 31 28 24 24
15 16 17 19 22 23 23 22 23 23 24 24 25 26 26 26 27 27 27 26 26 27 27 27 27 28 28 29 31 32 32 33 33 33 33 32 31 30 31 31 31 31 32 32 31 31 31 30 30 30 30 29 31 32 33 34 34 33 35 36 37 39 40 40 40 39 40 38 34 33 36 36 35 37 40 38 36 34 31 30 31 32 31 30 31
16 18 20 21 23 22 22 22 22 23 24 25 25 26 26 27 27 27 26 26 27 27 27 27 28 29 29 29 30 32 33 32 32 33 33 33 32 32 32 31 31 32 33 32 32 33 32 31 32 32 30 30 32 32 33 33 31 28 29 32 35 37 37 38 39 40 41 39 38 38 40 41 42 40 39 40 41 40 37 34 33 33 30 27 24
19 20 21 22 23 22 22 23 23 24 25 25 25 26 27 27 27 27 26 26 27 27 27 27 28 28 29 29 30 32 33 32 32 33 34 34 34 34 33 32 30 31 33 32 32 33 32 32 33 32 31 32 33 34 33 31 28 27 27 31 35 36 37 40 41 42 44 42 41 42 41 41 41 40 40 41 40 37 33 29 29 29 25 20 17
20 21 22 22 22 22 22 23 24 24 24 24 25 26 27 27 28 27 26 26 27 27 27 28 28 28 30 30 30 32 33 33 33 34 34 34 34 33 33 32 30 30 32 32 32 32 33 33 33 32 32 32 33 34 32 30 28 28 28 31 34 34 36 40 42 43 45 44 44 44 42 40 39 38 38 37 34 31 29 26 27 29 24 16 11
21 22 22 22 22 22 23 23 24 24 24 24 25 27 27 28 28 27 26 27 28 28 28 29 29 30 30 31 31 32 34 35 35 35 35 34 34 33 32 31 30 29 30 31 31 32 33 33 33 33 33 34 34 32 31 30 29 29 30 30 29 29 33 37 38 39 41 42 43 43 39 37 36 35 37 36 31 31 32 32 34 33 25 18 14
22 23 23 23 23 23 23 24 24 24 24 25 26 27 28 27 28 28 27 27 28 29 29 29 30 30 30 31 33 34 35 36 36 36 35 34 33 33 32 31 30 29 28 29 29 30 31 31 33 34 34 35 34 31 31 31 29 31 33 31 26 28 34 35 33 33 36 38 40 39 36 35 35 35 37 35 32 34 37 37 38 37 29 23 21
23 23 23 23 23 24 24 24 24 25 25 27 27 27 27 27 27 28 28 28 28 29 30 30 31 31 31 32 33 35 35 35 36 36 35 33 32 32 32 32 29 27 26 26 27 28 29 30 32 34 35 35 33 31 32 31 30 32 34 31 28 31 33 31 30 33 34 35 36 37 37 37 36 35 33 31 30 35 38 36 38 39 32 26 26
23 23 23 23 24 24 24 24 25 25 26 27 27 27 27 27 27 28 28 28 28 29 30 31 30 31 32 31 32 34 34 35 35 36 35 34 33 32 33 33 29 26 25 26 27 27 28 29 31 31 31 31 30 30 32 33 33 33 34 34 34 35 32 28 30 34 33 31 33 35 35 35 35 35 34 33 34 37 38 36 37 39 37 33 32
23 23 23 23 24 24 24 25 25 25 26 26 26 26 27 26 27 27 27 27 28 28 30 30 29 30 31 30 30 32 33 34 35 35 35 35 33 32 33 33 30 27 26 27 27 27 26 27 28 28 27 26 27 28 30 33 33 32 34 36 36 35 32 30 31 31 30 29 30 33 34 33 33 34 34 35 37 38 38 38 37 38 40 41 41
23 23 22 22 23 23 24 25 25 25 26 26 26 26 27 27 27 26 26 26 27 28 29 29 28 28 28 28 29 29 29 31 33 34 34 34 32 31 31 32 30 29 28 27 27 27 26 25 25 25 25 25 26 26 27 31 32 32 33 34 34 34 35 34 30 27 27 27 28 30 31 31 32 34 34 36 38 38 38 38 37 37 37 36 39
22 22 21 21 22 23 24 26 26 27 27 27 26 26 27 27 27 26 25 25 25 26 27 27 25 24 25 26 26 26 26 28 30 32 33 32 30 29 30 31 30 29 30 30 29 28 26 25 25 25 25 25 24 24 25 27 29 30 31 33 34 35 36 35 30 26 26 25 24 22 20 20 22 25 28 33 36 37 37 36 35 37 36 33 32
21 21 21 22 23 24 25 26 28 28 27 26 25 25 26 26 25 25 24 24 24 24 25 25 23 21 22 23 24 24 25 27 29 29 29 28 28 28 28 27 26 27 29 31 31 29 27 26 26 25 23 22 21 22 23 24 26 27 28 30 29 26 27 27 23 18 16 13 11 9 7 5 7 10 16 22 27 29 33 34 32 32 32 30 28
21 21 22 23 24 25 25 27 28 28 27 25 24 25 26 25 25 25 24 23 23 23 24 24 22 20 19 19 20 23 25 26 28 27 26 24 24 24 24 22 21 23 26 28 29 29 28 27 25 23 21 21 22 23 23 23 22 21 21 20 17 15 19 20 17 16 18 19 19 17 15 13 11 10 11 14 17 18 22 28 33 33 31 31 30
21 22 23 24 25 24 25 26 27 27 26 25 24 25 26 25 25 25 23 22 22 24 24 23 20 18 16 16 19 22 24 25 26 26 25 22 21 21 21 19 18 21 25 26 26 25 24 22 20 20 20 20 19 18 16 14 12 11 12 13 14 18 21 21 21 24 25 26 26 26 24 23 23 22 20 19 18 18 19 21 24 29 34 36 34
20 22 24 24 25 25 25 25 25 25 25 25 25 26 25 24 24 25 24 24 25 25 23 21 19 16 14 16 19 21 24 26 25 23 20 17 16 17 18 18 18 19 22 23 21 18 16 13 11 11 12 12 12 12 12 13 15 17 19 20 22 24 25 26 28 29 31 31 32 32 32 31 30 30 29 28 25 24 26 28 25 24 30 35 31
21 23 24 23 24 25 25 24 23 23 24 26 26 26 25 25 25 27 28 28 28 26 22 20 18 17 17 21 22 20 23 29 29 24 20 18 17 17 17 18 19 19 19 19 17 13 11 10 11 12 13 14 16 18 19 20 21 22 24 28 30 30 30 32 32 31 31 31 31 30 30 31 31 32 34 33 28 26 28 31 29 26 28 31 27
24 25 23 22 23 24 24 23 23 23 23 25 25 26 26 25 25 26 29 30 29 26 22 18 17 18 22 28 28 25 27 32 32 27 24 22 20 18 18 18 19 18 17 16 15 14 14 14 14 16 18 19 18 20 23 25 25 25 25 26 27 28 30 31 31 29 29 29 29 27 26 26 26 26 28 29 29 30 29 29 28 26 26 28 25
24 24 23 22 24 24 24 24 23 22 23 23 23 24 25 25 25 26 25 24 22 20 18 16 17 20 23 28 30 28 26 26 24 22 21 19 16 15 16 18 18 17 16 15 14 15 16 15 15 16 19 19 16 18 23 26 26 26 26 24 23 25 28 29 30 31 31 30 29 27 26 25 24 24 24 22 21 25 27 26 25 25 25 26 25
23 23 23 24 25 25 24 24 23 22 21 20 20 21 22 23 23 22 18 14 13 13 13 14 19 22 20 19 21 21 18 15 14 14 14 13 10 10 12 14 14 14 14 13 13 15 16 16 17 18 19 19 17 19 23 26 26 26 27 26 24 26 28 28 28 31 31 28 26 25 24 24 23 23 23 21 19 20 21 21 23 24 24 25 25
24 24 24 25 25 25 23 23 21 19 19 20 21 21 20 20 19 17 14 11 11 12 13 14 17 18 16 13 12 12 11 10 10 11 11 9 5 3 5 6 7 9 11 11 11 12 14 17 19 20 20 20 20 22 25 26 26 27 27 27 27 27 28 28 29 29 29 27 27 26 24 23 22 21 21 20 19 18 18 18 20 22 21 21 21
24 25 25 25 25 24 23 21 19 18 20 21 21 21 21 20 15 11 10 11 11 12 14 15 15 15 15 13 12 12 12 13 14 14 14 13 10 10 13 16 16 15 16 17 19 17 17 20 21 22 22 22 22 24 25 26 27 29 29 29 29 28 28 28 28 28 27 26 26 26 24 22 21 21 20 18 17 17 16 17 18 20 20 19 19
23 24 25 25 24 22 21 20 19 19 20 21 22 24 22 15 7 6 8 9 9 11 14 15 14 16 16 16 15 15 15 15 16 16 17 18 19 21 23 23 22 20 21 23 24 23 23 23 22 23 25 26 26 27 27 27 28 30 30 30 29 28 26 25 24 24 24 24 23 23 22 21 20 19 18 17 17 16 16 16 17 18 19 19 20
23 23 24 23 21 20 20 20 20 20 20 22 24 22 11 4 7 8 8 9 9 10 13 14 14 14 15 16 17 18 18 18 18 18 18 19 22 25 24 22 21 22 23 25 27 28 27 27 26 26 28 29 29 30 30 29 29 29 29 29 29 28 27 25 23 22 22 22 22 21 20 19 19 19 18 18 18 18 17 17 17 17 17 18 19
24 23 23 21 18 17 18 19 19 18 18 17 15 8 9 12 10 9 10 10 11 11 12 14 14 14 14 15 17 19 21 23 24 25 25 26 29 29 27 24 23 24 24 25 29 31 31 30 31 31 31 32 33 32 31 30 29 28 29 29 29 29 27 25 23 22 22 21 20 19 19 19 19 19 20 19 19 19 18 17 16 16 16 17 18
22 21 19 17 14 12 13 13 13 13 12 10 8 10 13 12 10 11 11 12 13 13 13 13 14 14 15 16 17 20 24 26 26 27 28 29 30 30 28 27 27 27 26 27 29 32 31 30 31 32 33 34 33 32 31 30 29 28 28 28 28 26 25 24 23 21 20 19 18 17 17 17 17 17 17 17 17 17 16 16 16 17 18 18 18
20 19 18 15 12 11 10 10 10 10 11 12 12 13 12 11 11 12 13 14 15 14 13 14 16 15 16 17 18 22 25 25 23 24 26 27 29 30 30 30 29 29 30 31 32 32 32 32 32 33 33 32 30 30 30 30 29 27 27 27 27 26 23 21 20 19 19 18 17 16 15 14 14 13 14 15 16 17 17 17 18 19 19 17 15
17 17 16 14 13 11 10 10 11 11 11 12 13 14 13 12 12 13 15 15 15 15 16 18 19 18 19 19 20 23 25 23 22 23 26 27 28 30 31 31 31 31 32 33 33 34 34 34 34 34 32 30 29 28 29 30 29 28 26 26 26 24 21 19 18 18 17 16 16 15 15 15 15 15 16 17 18 18 18 18 18 17 16 15 14
15 14 13 13 12 12 12 12 13 13 13 13 13 14 14 13 14 15 15 15 15 17 19 20 21 23 25 25 26 27 27 25 25 26 27 28 29 31 32 32 32 32 32 32 33 34 35 35 34 34 32 31 30 29 29 29 29 27 26 24 23 21 20 19 19 19 19 19 19 18 18 18 17 17 17 17 16 16 16 15 15 14 14 14 14
13 12 11 12 12 13 14 15 15 15 14 14 14 14 15 15 16 16 16 15 16 18 20 20 22 26 28 29 30 31 29 28 27 28 28 29 31 31 32 32 32 32 32 32 32 33 34 34 34 33 32 30 29 28 28 27 26 25 24 23 22 22 21 21 21 21 21 21 20 19 18 16 15 15 15 14 14 14 14 14 13 14 14 15 16
13 13 13 13 15 15 16 17 17 17 17 16 16 16 18 19 19 18 17 17 17 19 20 21 22 25 28 29 31 31 30 29 28 28 28 30 31 31 32 33 33 34 35 34 33 34 35 35 33 32 30 28 26 26 26 25 25 26 25 25 24 23 22 22 21 20 19 18 17 16 14 13 13 13 13 13 12 12 13 13 14 15 15 16 16
15 15 16 17 18 18 18 19 19 20 21 22 20 20 21 21 21 20 19 19 19 20 21 21 22 24 27 28 29 29 29 29 28 28 29 30 31 31 32 33 34 35 36 34 33 33 34 33 32 30 28 27 25 25 26 26 26 27 27 25 24 22 21 19 18 16 14 14 14 13 12 12 12 12 12 11 12 13 14 14 15 15 16 15 14
17 17 18 19 20 20 20 21 21 21 23 24 23 22 23 23 22 21 20 21 21 22 23 24 24 25 26 26 26 27 29 29 28 28 29 30 31 32 33 33 33 34 33 33 32 31 31 31 30 30 29 28 27 26 26 26 25 24 23 22 20 19 17 16 14 12 11 11 11 12 11 11 11 11 11 11 12 13 14 15 15 15 14 13 12
19 19 19 21 22 22 22 23 23 23 23 23 22 22 23 23 23 23 22 23 24 24 24 25 26 27 27 28 27 27 28 29 28 28 28 30 32 33 33 33 33 33 33 32 32 31 31 31 31 30 30 28 27 26 24 23 21 20 18 17 17 16 15 14 12 11 10 9 9 10 10 11 11 11 11 11 12 13 14 14 14 13 12 11 10
21 21 21 22 23 24 24 25 25 25 25 25 24 23 24 25 25 26 25 25 26 26 26 26 27 27 28 28 28 28 28 29 29 29 30 31 32 33 33 34 34 34 34 33 33 32 32 31 30 29 28 26 24 23 21 19 18 17 16 15 14 14 13 12 11 11 10 9 9 9 10 11 12 11 11 11 12 13 13 12 11 10 10 10 10
22 23 23 23 24 24 24 25 26 26 26 26 25 25 26 27 27 27 26 26 27 26 26 26 27 27 28 28 29 29 30 30 31 31 31 32 32 34 35 35 35 34 34 32 31 29 28 27 26 25 24 22 21 20 18 17 16 15 14 14 13 12 11 10 10 10 10 10 9 9 10 11 11 11 11 11 11 11 11 11 10 9 10 10 10
23 23 24 24 25 25 25 25 26 25 25 26 26 26 26 27 26 26 26 27 27 27 27 27 27 27 28 29 29 30 31 31 31 31 31 32 32 33 33 32 31 30 28 27 26 25 25 24 23 23 22 21 20 19 18 17 16 15 15 14 13 12 11 11 11 11 11 10 9 9 10 10 11 11 11 10 10 10 10 9 9 10 10 10 10
25 25 25 25 26 26 25 26 27 26 26 26 26 25 26 26 25 26 27 28 28 27 27 27 27 27 28 28 29 29 29 28 28 28 28 28 28 27 27 26 25 24 25 25 24 24 24 24 23 23 22 21 21 20 19 18 17 16 15 14 13 12 11 12 12 12 11 10 10 10 10 10 11 11 11 10 10 9 9 9 9 9 9 9 8
27 27 27 27 27 26 27 27 28 27 26 26 26 26 26 25 25 25 26 27 27 27 27 27 27 27 27 27 27 27 26 26 25 25 25 24 24 24 24 24 24 24 24 24 24 24 23 23 22 22 21 20 20 19 19 18 17 16 14 13 12 11 11 11 12 11 11 10 10 10 10 10 11 11 10 10 9 9 9 8 7 7 6 6 5
Wind_Direction
232 240 243 255 281 295 300 301 299 296 295 295 295 294 293 292 293 297 297 295 294 293 292 292 294 295 294 290 285 283 282 282 280 277 275 273 269 266 266 264 259 257 258 257 252 246 243 244 244 242 240 239 239 239 239 240 239 237 235 231 227 227 224 216 221 243 240 237 238 239 237 231 225 222 217 209 208 208 205 205 203 201 202 205 208
257 264 269 277 285 288 291 292 292 290 290 293 296 297 296 295 296 297 296 295 293 290 287 287 287 289 291 291 288 285 283 282 282 280 277 274 271 268 264 261 259 258 258 256 253 249 247 248 248 246 243 239 238 238 237 237 236 234 234 232 229 229 227 220 219 230 237 236 235 234 232 227 222 219 216 210 207 205 200 197 198 204 209 208 209
272 276 278 281 282 285 287 288 290 288 287 291 294 297 297 297 296 296 296 297 294 289 287 286 284 283 285 287 288 287 286 284 283 280 277 274 271 267 263 261 261 260 258 256 254 252 249 249 249 247 244 240 238 237 237 236 235 234 235 235 233 232 231 225 221 223 230 235 235 232 229 226 223 220 217 213 209 206 201 197 200 207 210 210 212
274 277 278 280 281 283 287 290 291 290 290 292 293 296 297 297 296 295 295 296 294 290 289 287 285 282 280 282 284 284 285 285 284 281 276 273 270 269 266 262 261 261 259 257 256 254 252 250 249 247 244 240 238 237 235 234 234 233 234 235 234 232 231 228 225 225 226 228 232 233 233 229 224 221 215 209 207 207 204 201 202 205 206 209 213
274 277 279 280 280 283 288 292 293 293 293 295 295 297 298 297 296 295 295 294 293 291 289 286 285 283 280 280 281 282 283 283 284 283 279 275 272 270 268 265 262 261 260 259 257 255 253 251 250 248 244 241 240 237 234 231 230 230 230 231 231 231 230 229 228 227 224 223 227 230 230 225 220 217 213 206 201 200 201 203 204 205 207 208 211
276 278 280 281 280 284 289 292 295 296 296 297 299 300 299 298 297 296 294 293 291 289 287 285 284 283 282 281 280 280 281 280 280 281 280 278 273 271 269 266 264 262 260 260 258 255 253 252 251 250 245 241 240 239 235 231 228 226 226 227 228 227 226 226 227 225 223 225 225 220 217 215 211 210 212 209 202 195 193 198 203 206 208 207 207
279 280 282 281 280 282 288 292 296 298 299 301 301 300 298 297 296 295 294 292 290 287 286 285 284 283 282 281 280 279 278 278 278 278 279 277 273 271 268 266 265 263 261 259 258 256 254 252 252 250 246 242 240 239 237 233 230 228 227 226 224 222 221 222 222 220 220 223 222 216 212 211 208 207 208 206 204 199 192 187 189 197 204 206 205
280 281 282 281 280 281 286 292 296 299 301 303 301 298 296 296 295 293 292 289 287 286 285 285 284 283 281 280 279 278 276 276 277 276 276 275 273 270 268 266 264 263 261 259 257 257 255 253 251 250 248 245 242 240 237 234 232 230 230 228 224 221 219 218 217 216 216 216 217 215 210 206 203 202 199 194 194 197 195 191 186 188 196 202 203
281 282 282 278 278 281 286 292 296 299 301 301 299 296 296 295 294 292 290 288 287 286 286 285 284 282 280 278 277 276 275 275 275 275 274 273 272 271 269 267 263 261 262 261 258 257 255 254 252 251 251 248 245 243 240 237 234 231 230 228 224 221 219 218 215 212 210 211 211 209 203 201 199 193 190 191 194 195 194 193 191 189 189 191 196
281 280 277 276 280 285 291 296 298 300 301 299 297 296 296 296 295 292 290 289 288 287 286 284 281 279 278 277 276 275 274 274 274 274 272 270 270 271 270 268 265 262 261 261 260 258 255 254 253 254 256 255 250 245 243 240 238 236 235 231 225 222 219 218 215 210 206 204 203 198 193 198 201 195 194 199 199 196 190 189 189 185 182 181 185
279 278 279 283 288 292 296 299 300 300 299 297 296 296 296 296 294 292 290 289 288 287 285 282 280 278 277 276 275 274 274 275 274 273 271 269 269 270 269 269 266 263 261 261 260 259 256 254 252 253 256 256 252 247 244 242 239 238 238 236 232 228 222 218 215 210 206 205 204 200 194 198 204 203 202 200 197 194 191 190 186 179 177 178 178
285 287 290 293 295 298 299 300 299 298 297 296 295 296 295 293 292 289 288 287 287 286 284 281 280 279 277 277 276 275 275 275 275 274 271 270 270 270 269 269 266 263 261 259 259 259 257 255 252 249 250 251 250 248 246 244 240 238 238 237 235 233 229 225 220 214 210 209 207 203 203 205 206 205 203 201 197 196 194 191 188 183 183 184 183
296 295 297 298 299 302 302 301 299 297 296 296 296 296 293 290 289 288 287 287 286 285 283 282 280 279 278 278 277 277 277 277 276 274 273 272 272 271 270 268 266 262 260 258 257 257 256 255 252 248 247 247 247 246 245 244 242 240 239 238 236 235 233 231 228 225 221 216 210 208 209 209 206 206 208 205 199 193 191 192 191 187 186 190 193
298 296 298 301 302 303 302 300 298 297 297 297 295 294 291 289 289 289 288 288 286 285 284 282 281 280 279 278 278 278 278 277 277 276 275 274 273 272 270 268 266 262 260 258 256 255 254 252 250 247 244 243 244 244 243 243 243 241 239 237 236 235 234 232 230 230 228 222 217 218 217 215 213 214 214 209 202 196 192 192 194 192 192 196 198
297 297 300 301 302 301 301 301 299 297 297 296 294 292 290 289 290 291 290 288 286 284 284 283 283 283 281 279 278 279 278 278 277 277 275 274 274 272 269 267 266 262 259 257 255 254 253 250 249 247 244 242 243 243 243 242 243 242 238 235 234 235 235 232 228 227 227 226 226 227 226 224 222 221 217 212 209 205 199 199 201 197 193 191 190
299 298 299 299 300 300 301 300 297 296 295 294 291 290 289 289 290 291 290 288 286 285 284 283 283 283 282 280 279 278 278 278 278 277 276 274 273 271 268 266 264 261 259 257 254 254 253 250 247 246 244 244 244 245 245 243 240 238 236 234 234 235 234 232 230 228 228 228 228 230 230 229 228 227 222 216 210 203 195 196 202 195 183 178 176
297 296 296 296 298 299 298 296 293 293 293 291 289 289 289 289 290 291 290 288 287 286 285 285 284 283 282 281 279 278 278 279 279 278 276 274 271 269 265 263 261 258 258 257 255 254 253 250 247 247 246 246 246 246 245 242 238 234 232 232 233 234 235 233 232 232 231 231 230 231 231 230 231 229 223 216 209 198 186 183 191 188 179 177 177
293 293 294 296 297 298 297 294 292 291 292 291 290 289 289 289 290 291 290 288 288 288 287 287 286 284 283 282 280 279 279 279 279 277 275 272 269 266 263 261 260 259 257 257 256 253 251 250 248 247 247 248 248 247 244 240 236 230 226 225 227 230 233 232 231 231 232 232 231 231 231 231 231 226 220 216 214 207 198 192 190 186 181 184 179
292 293 294 296 297 298 298 296 294 293 292 292 292 291 290 291 293 293 292 290 290 289 289 288 287 286 286 285 283 282 280 280 280 278 274 271 266 262 259 257 258 257 256 255 254 252 250 250 248 246 247 249 249 248 244 238 232 226 224 224 225 229 232 231 227 227 228 227 227 228 229 229 227 223 220 220 216 213 211 204 193 187 186 186 176
295 295 295 296 297 298 299 298 296 295 294 294 294 293 292 294 295 295 294 292 291 291 291 290 289 288 288 286 284 283 281 280 280 278 274 269 264 260 255 251 251 255 256 254 252 251 250 250 250 249 250 251 250 250 247 240 232 225 221 222 226 231 232 230 226 225 225 222 222 224 224 223 222 221 221 219 212 211 215 210 199 195 190 181 178
298 297 296 296 297 298 299 299 297 297 297 297 297 296 295 296 296 295 295 294 293 292 292 291 288 287 286 285 283 282 280 279 278 278 275 269 265 260 253 247 248 254 257 256 254 251 249 248 249 251 252 251 253 254 251 245 237 226 219 223 232 235 233 229 227 226 224 220 220 222 222 221 220 218 217 214 210 210 211 210 207 203 195 189 188
302 300 299 298 298 299 300 300 300 299 300 300 299 297 297 298 297 296 295 294 292 291 290 289 287 286 285 283 281 280 279 279 279 277 275 270 266 261 253 250 251 253 254 256 255 251 248 246 247 248 250 253 255 255 253 249 242 229 223 231 238 238 235 233 230 225 220 214 214 217 219 219 217 214 212 210 211 211 211 211 210 206 201 200 198
305 303 300 299 300 301 301 302 302 302 301 301 299 298 298 298 297 295 294 293 291 290 289 289 287 287 286 284 283 281 280 280 280 278 275 270 265 260 255 254 254 252 251 253 254 253 252 249 248 249 251 253 255 255 253 251 244 232 229 237 241 239 237 235 230 220 212 205 204 209 214 216 215 214 211 208 209 210 209 208 207 202 200 200 198
309 304 301 301 301 302 303 303 302 301 301 301 299 297 297 297 295 294 293 291 290 289 289 289 287 287 287 286 286 284 282 283 283 280 276 269 264 260 256 256 256 253 250 250 251 253 253 251 250 251 252 252 253 255 254 249 244 238 234 238 241 238 234 231 224 214 205 200 200 203 207 210 212 213 210 207 206 205 202 200 199 197 193 192 191
308 303 302 301 300 302 302 301 300 300 299 299 297 296 296 296 295 295 293 291 289 290 290 288 285 284 283 284 285 286 286 288 288 283 276 269 264 261 258 257 256 253 252 251 251 251 252 252 251 250 250 252 254 252 248 243 241 240 237 237 239 232 223 220 214 198 180 167 156 144 139 158 190 200 196 192 188 187 184 180 179 180 179 175 172
306 301 299 298 298 299 299 299 300 300 299 298 296 294 295 296 296 295 293 291 290 291 290 288 285 280 278 280 285 287 289 292 290 285 277 269 265 260 256 255 255 252 250 252 254 253 250 248 249 249 252 254 249 242 239 237 236 236 233 231 224 204 193 193 178 147 127 115 105 96 90 92 100 114 136 148 147 150 158 158 155 154 153 148 139
305 300 297 298 299 299 299 299 300 300 299 298 297 296 296 295 295 293 292 293 294 293 290 286 284 281 281 285 288 289 291 292 290 285 278 271 267 259 251 249 256 256 251 250 254 255 250 246 247 248 247 243 235 226 221 217 205 191 188 187 176 167 167 164 149 131 120 112 104 98 93 92 90 88 86 87 91 102 115 122 126 129 131 127 118
305 301 299 300 300 300 299 298 298 298 298 298 298 298 296 295 293 291 291 291 288 285 285 286 286 288 291 292 292 293 292 290 287 283 280 279 278 269 255 248 251 254 251 249 250 252 249 239 227 218 209 197 183 165 154 149 143 139 140 142 142 144 145 141 132 123 116 112 108 105 104 102 99 96 90 81 75 85 97 99 96 101 111 114 111
305 301 300 300 299 299 299 297 295 295 295 296 296 294 293 294 293 291 293 294 289 284 285 288 289 294 297 293 290 288 285 286 286 282 279 284 285 276 263 253 246 243 246 247 240 224 208 187 166 153 147 144 139 131 125 121 118 119 123 126 127 129 129 127 123 120 118 117 115 113 112 112 110 109 107 102 96 95 99 101 100 99 104 107 107
306 302 301 300 299 299 297 293 291 290 290 292 295 296 297 299 295 293 295 299 296 292 291 287 289 302 307 301 295 287 280 284 289 288 287 290 284 269 259 255 251 244 241 238 220 190 170 160 151 143 139 136 132 126 122 118 114 112 113 116 120 121 120 119 119 118 117 115 112 111 110 109 108 108 109 112 116 117 115 112 110 110 111 109 106
302 299 298 297 297 296 293 289 288 287 287 291 296 300 301 302 300 299 299 300 299 297 294 290 296 309 313 306 301 297 291 289 292 295 297 298 289 268 254 250 249 245 236 219 194 171 159 150 141 135 133 129 123 121 120 117 114 112 110 108 110 112 113 114 115 115 114 112 111 112 111 110 110 110 110 113 116 117 118 119 119 121 122 119 117
295 293 294 294 294 293 290 288 288 289 292 296 298 297 297 299 303 306 305 306 312 316 315 312 314 319 320 314 310 312 312 306 303 307 310 306 289 263 245 240 239 236 225 205 177 161 151 138 129 126 124 121 118 119 119 116 115 116 113 109 107 108 110 113 115 115 115 114 114 114 113 114 115 115 116 118 116 115 118 121 124 128 131 130 132
296 294 294 293 293 292 291 292 293 293 297 298 295 293 293 294 298 306 313 323 334 339 341 341 339 341 345 345 337 337 345 352 354 357 358 349 324 258 211 198 189 188 184 162 132 126 126 122 121 122 119 116 117 117 116 115 115 113 111 109 108 109 112 114 115 114 114 115 116 116 116 117 118 118 119 122 124 125 125 126 130 134 136 136 139
302 299 297 296 295 296 297 298 299 298 297 295 293 292 291 290 295 315 336 340 342 349 358 7 13 15 18 24 27 29 35 40 42 49 58 64 77 104 114 112 117 131 134 117 102 100 105 107 110 112 109 108 111 111 110 111 111 109 108 108 109 111 114 116 115 115 117 117 118 120 122 121 121 122 123 125 128 129 128 130 135 137 137 140 145
306 303 303 302 299 298 298 298 298 295 293 293 291 288 286 291 319 9 11 355 351 359 7 15 22 24 27 35 42 45 47 50 54 66 79 87 96 104 103 98 96 99 101 100 98 98 100 101 104 106 106 106 106 106 105 105 106 107 108 109 110 111 112 113 114 116 118 118 118 121 124 124 124 128 130 132 133 133 134 138 140 138 138 142 145
311 307 305 303 299 295 295 296 295 292 291 293 292 291 296 7 46 38 28 24 26 22 11 5 9 20 32 42 48 54 57 59 64 72 80 87 93 93 88 84 86 88 90 92 94 93 93 95 97 99 100 102 102 102 103 104 105 107 110 111 112 112 111 111 113 115 116 117 119 124 129 131 135 140 142 140 139 140 142 143 142 138 139 142 144
316 312 308 306 304 301 299 300 301 301 303 304 306 330 48 60 51 46 45 41 37 24 5 357 4 17 28 36 47 58 66 68 71 75 77 81 84 83 81 81 84 86 87 90 94 95 94 96 99 101 101 102 102 103 104 105 106 109 112 113 114 113 113 116 119 121 122 124 130 135 138 138 142 147 146 142 142 145 147 146 143 142 144 147 147
323 324 325 327 329 326 321 322 328 334 342 352 19 56 63 56 53 58 53 41 32 20 7 7 16 21 26 36 48 60 65 66 67 68 68 72 76 77 78 80 82 83 84 87 91 95 96 98 100 103 104 105 107 108 108 107 108 109 111 110 110 112 114 117 122 127 130 133 137 141 142 141 143 145 145 144 145 149 151 151 150 148 149 151 150
331 338 344 348 352 352 352 357 6 18 32 44 50 56 59 61 61 56 45 38 36 29 26 33 38 40 45 51 57 63 64 61 59 61 64 68 73 75 77 78 79 82 85 87 90 93 95 96 98 100 102 105 107 107 107 107 107 109 109 109 110 113 116 119 124 130 135 137 141 144 145 143 143 146 148 149 150 152 153 154 153 152 151 152 153
339 346 351 357 4 9 16 23 27 35 48 54 55 59 65 65 59 53 50 50 47 43 43 45 46 51 61 65 67 71 70 65 62 65 68 69 72 75 77 78 79 82 85 88 91 93 94 96 98 99 101 103 104 105 107 108 110 113 115 115 117 120 124 127 132 137 139 140 142 143 142 141 143 144 144 144 146 149 151 151 151 152 152 152 153
349 355 0 9 20 29 35 38 39 42 50 57 62 67 69 65 61 60 59 58 56 56 55 54 54 60 69 73 75 77 76 73 71 72 72 72 73 74 76 79 81 84 86 89 92 94 95 97 99 100 102 104 105 106 109 112 115 118 121 122 123 125 128 130 133 135 135 134 134 135 136 138 140 141 140 142 145 148 150 150 150 151 151 151 152
6 13 17 24 35 44 47 48 51 56 61 66 69 69 68 67 67 66 63 61 63 65 65 63 62 64 68 73 76 77 76 75 75 75 75 76 76 77 78 81 84 86 88 91 94 96 98 99 101 103 106 108 109 110 112 115 118 120 121 122 122 122 123 125 127 128 129 129 129 130 131 134 137 138 139 142 145 146 147 148 148 149 149 149 151
27 34 38 42 48 54 55 55 57 62 65 67 68 69 70 70 69 68 67 66 67 69 69 67 66 65 66 69 74 75 73 73 73 74 76 77 78 79 82 85 88 91 94 96 98 100 102 103 104 107 109 111 112 113 114 116 119 121 121 121 122 122 122 123 123 124 125 123 122 123 125 128 132 135 137 141 144 146 149 151 150 150 149 149 150
40 47 52 54 56 58 59 60 61 63 66 67 68 68 70 70 69 69 69 68 66 66 66 65 64 66 66 66 69 72 73 72 72 74 77 79 80 81 84 87 91 94 97 100 102 104 105 105 106 107 109 111 113 115 116 118 120 122 123 123 122 120 119 118 117 118 119 119 119 122 124 127 131 133 136 142 147 148 151 152 151 149 149 148 148
45 50 54 56 57 57 59 61 62 64 66 68 67 66 67 68 67 66 65 66 65 65 65 64 63 64 65 65 65 69 73 74 73 73 77 79 81 83 86 88 91 94 97 101 104 106 106 107 108 108 109 111 112 113 115 117 118 118 119 119 117 114 112 111 110 111 113 117 120 124 126 130 133 135 138 144 149 151 151 152 151 149 148 148 149
51 53 54 57 59 59 58 60 61 62 63 64 64 64 64 65 64 64 65 66 67 67 67 67 65 64 65 65 64 65 70 74 73 74 77 81 84 87 90 92 93 95 97 100 104 106 106 107 108 107 107 108 109 110 111 112 112 112 112 112 111 109 108 108 109 110 112 117 123 129 133 136 139 141 144 148 151 151 150 150 151 150 148 149 151
55 57 57 59 61 61 60 61 62 63 63 62 63 64 66 66 66 67 68 69 70 70 69 69 69 68 69 69 68 68 70 73 75 77 79 83 86 89 92 94 95 96 97 99 101 101 102 102 103 104 105 106 107 107 108 107 106 105 104 103 103 104 105 109 113 116 119 122 128 134 139 140 140 143 147 148 149 149 147 146 148 149 150 153 155
58 60 61 62 62 61 62 63 64 65 65 65 65 67 69 70 71 71 71 71 71 71 71 71 72 73 73 74 75 76 77 78 79 81 83 85 87 90 93 95 96 96 97 98 98 98 99 100 101 102 102 102 101 100 99 98 98 98 97 97 98 99 102 106 110 112 115 118 122 126 130 133 134 137 140 142 144 146 145 146 148 150 153 155 156
60 62 63 64 64 64 65 67 68 68 69 70 70 70 71 72 73 73 74 74 74 73 74 74 75 76 77 79 80 81 82 82 83 84 86 88 90 92 94 95 96 97 97 97 97 96 96 96 96 95 94 93 92 91 90 89 88 87 87 87 89 90 93 96 98 101 105 110 114 116 119 121 123 126 130 134 137 139 141 145 151 156 159 161 162
62 63 64 65 66 67 68 70 71 70 71 72 72 71 72 73 74 74 75 75 75 75 76 77 77 78 79 81 82 83 84 84 84 86 88 90 92 93 94 94 94 95 96 96 96 94 92 90 89 88 87 85 84 82 80 78 76 76 77 79 82 86 88 91 93 97 101 103 106 110 114 117 119 121 124 127 131 135 138 142 148 153 158 163 167
64 65 65 66 67 68 68 69 69 69 69 70 71 71 72 73 73 74 75 76 77 78 79 80 81 82 83 84 86 86 86 85 85 86 87 88 90 91 92 93 94 96 98 97 96 93 90 88 86 84 82 80 78 76 74 72 70 71 72 76 79 84 88 92 96 98 98 99 102 107 111 114 116 118 120 123 127 130 132 136 141 146 151 157 162